{"data":{"norad_id":67413,"epoch":"2026-05-24T18:16:33.091104Z","epoch_age_seconds":109729,"freshness":"FRESH","line1":"1 67413U 26005K   26144.76149411  .00010551  00000+0  39233-3 0  9998","line2":"2 67413  43.0025 168.1131 0001060 280.1401  79.9331 15.27584768 20334","mean_motion":15.27584768,"eccentricity":0.000106,"inclination_deg":43.0025,"raan_deg":168.1131,"arg_perigee_deg":280.1401,"mean_anomaly_deg":79.9331,"bstar":0.00039233,"rev_number":2033,"period_min":94.266454481955,"perigee_km":482.3075347567,"apogee_km":483.76210318232,"semimajor_km":6861.1718189695,"source":"CELESTRAK","updated_at":"2026-05-25T13:38:21.554267Z"}}